Home > Weather > Moscow > Past weeks

Flag for USA Past Weather in Moscow, Idaho, USA — Yesterday and Last 2 Weeks

Now
50 °F

Passing clouds.


Feels Like: 47 °F
Forecast: 41 / 66 °F
Wind: 8 mph from West

Location: Pullman / Moscow Regional Airport

Current Time: May 30, 2016 at 3:56:37 AM

Latest Report: May 30, 2016 at 2:53 AM


Visibility: 10 mi

Pressure: 30.13 "Hg (27.42 "Hg at 781m altitude)

Humidity: 61%

Dew Point: 37 °F

Location of MoscowLocation

Past Weather in Moscow — Graph

°F

Moscow Temperature Yesterday

Maximum temperature yesterday: 69 °F (at 1:53 PM)
Minimum temperature yesterday: 45 °F (at 12:53 AM)
Average temperature yesterday: 59 °F

High & Low Weather Summary for the Past Weeks

 TemperatureHumidityPressure
High73 °F (May 18, 2:53 PM)97% (May 15, 2:53 AM)30.23 "Hg (May 15, 2:53 AM)
Low40 °F (May 20, 1:53 AM)30% (May 29, 5:53 PM)29.62 "Hg (May 20, 3:53 PM)
Average54 °F69%29.95 "Hg
* Reported May 15 1:53 AM — May 30 1:53 AM, Moscow, Weather by CustomWeather, © 2016

Note: Actual official high and low records may vary slightly from our data, if they occured in-between our weather recording intervals... More about our weather records

Advertising

Moscow Weather History for the Previous 24 Hours

Scroll right to see more
 ConditionsComfort  
Time TempWeatherWind HumidityBarometerVisibility
1:53 AM
Mon, May 30
52 °FOvercast.12 mph57%30.11 "Hg10 mi
12:53 AM54 °FOvercast.9 mph51%30.10 "Hg10 mi
11:53 PM
Sun, May 29
56 °FMostly cloudy.9 mph46%30.08 "Hg10 mi
10:53 PM56 °FPassing clouds.7 mph49%30.06 "Hg10 mi
9:53 PM59 °FOvercast.10 mph46%30.05 "Hg10 mi
8:53 PM59 °FSunny.8 mph48%30.02 "Hg10 mi
7:53 PM62 °FSunny.9 mph41%30.00 "Hg10 mi
6:53 PM66 °FSunny.12 mph32%29.99 "Hg10 mi
5:53 PM68 °FSunny.13 mph30%29.99 "Hg10 mi
4:53 PM69 °FSunny.14 mph32%29.98 "Hg10 mi
3:53 PM69 °FSunny.17 mph36%29.98 "Hg10 mi
2:53 PM69 °FScattered clouds.12 mph41%30.00 "Hg10 mi
1:53 PM69 °FScattered clouds.18 mph41%30.01 "Hg10 mi
12:53 PM67 °FPassing clouds.10 mph45%30.03 "Hg10 mi
11:53 AM64 °FMostly cloudy.9 mph50%30.04 "Hg10 mi
10:53 AM62 °FPartly sunny.12 mph54%30.04 "Hg10 mi
9:53 AM61 °FPartly sunny.8 mph56%30.05 "Hg10 mi
8:53 AM58 °FPartly sunny.5 mph60%30.05 "Hg10 mi
7:53 AM58 °FPartly sunny.3 mph62%30.03 "Hg10 mi
6:53 AM51 °FMostly cloudy.6 mph74%30.02 "Hg10 mi
5:53 AM50 °FPassing clouds.3 mph68%30.02 "Hg10 mi
4:53 AM49 °FPassing clouds.5 mph69%30.01 "Hg10 mi
3:53 AM51 °FPassing clouds.5 mph66%30.01 "Hg10 mi
Weather by CustomWeather, © 2016

See weather overviewHow to use our weather pages